Regional Weather Roundup
Issued by NWS

Home | Current Version | Previous Version | Graphics & Text | Print | Product List | Glossary On
Versions: 1 2 3 4 5 6 7 8 9 10 11 12 13 14 15 16 17 18 19 20 21 22 23 24 25 26 27 28 29 30 31 32 33 34 35 36 37 38 39 40 41 42 43 44 45 46 47 48 49 50
811
ASUS44 KJAN 291003
RWRMS

MISSISSIPPI HOURLY WEATHER ROUNDUP
NATIONAL WEATHER SERVICE JACKSON MS
500 AM CDT SUN MAR 29 2015

NOTE: "FAIR: INDICATES FEW OR NO CLOUDS BELOW 12,000 FEET WITH NO
SIGNIFICANT WEATHER AND/OR OBSTRUCTIONS TO VISIBILITY.

MSZ001>002-007>008-010>013-018>021-025>028-034>036-291100-
NORTHWEST MISSISSIPPI

CITY           SKY/WX    TMP DP  RH WIND       PRES   REMARKS
CLARKSDALE     CLOUDY    39  32  75 E8        30.26F WCI  34
CLEVELAND      CLOUDY    42  33  71 SE9       30.24F
GREENWOOD      CLOUDY    43  27  53 VRB6      30.26F
GREENVILLE     CLOUDY    43  33  68 E12       30.23F
OLIVE BRANCH   CLEAR     32  32 100 SE6       30.27S WCI  26
OXFORD         FAIR      32  28  86 E5        30.29F WCI  27
TUNICA         MOSUNNY   34  32  93 E5        30.28S WCI  30
$$

MSZ003>006-009-014>017-022>024-029>033-037>039-291100-
NORTHEAST MISSISSIPPI

CITY           SKY/WX    TMP DP  RH WIND       PRES   REMARKS
COLUMBUS AFB   CLOUDY    40  33  77 E5        30.31S
CORINTH        FAIR      30  27  86 CALM      30.28F
GOLDN TRIANGLE CLOUDY    43  30  61 E7        30.30S
STARKVILLE     CLOUDY    41  34  75 E5        30.30S
TUPELO         CLEAR     34  29  82 CALM      30.30S
$$

MSZ040-058-291100-
CENTRAL MISSISSIPPI

CITY           SKY/WX    TMP DP  RH WIND       PRES   REMARKS
JACKSON INTL   CLOUDY    45  32  60 SE7       30.25F
JACKSON HAWKNS CLOUDY    44  32  62 E8        30.25S
MERIDIAN KEY   CLOUDY    42  31  64 NE6       30.30S
MERIDIAN NAS   NOT AVBL
RAYMOND        PTSUNNY   45  41  87 SE9       30.24S
VICKSBURG      CLOUDY    47  34  60 SE10      30.23S
$$

MSZ059>079-291100-
SOUTH MISSISSIPPI

CITY           SKY/WX    TMP DP  RH WIND       PRES   REMARKS
BROOKHAVEN     PTSUNNY   45  36  70 SE5       30.26S
HATTIESBURG    CLEAR     41  33  73 CALM      30.29S
MCCOMB         MOCLDY    45  33  63 E6        30.24S
NATCHEZ        PTCLDY    46  36  66 SE8       30.21S
PINE BELT      CLEAR     39  30  70 CALM      30.28S
$$

MSZ080>082-291100-
COASTAL MISSISSIPPI

CITY           SKY/WX    TMP DP  RH WIND       PRES   REMARKS
BILOXI         CLEAR     47  34  62 NE9       30.26R
PASCAGOULA     CLEAR     44  35  70 NE6       30.28R
GULFPORT       CLEAR     47  34  60 E6        30.26R
$$



USA.gov is the U.S. government's official web portal to all federal, state and local government web resources and services.